Norfolk, NE

7:20 AM CST on December 16, 2019 (GMT -0600)
Stefan Memorial

Weather History for KOFK - October, 2019

Change the Weather History Date:

Thursday, October 24, 2019

  Actual Average Record
Temperature  
Mean Temperature 38 °F 48 °F  
Max Temperature 49 °F 60 °F 86 °F (1927)
Min Temperature 26 °F 36 °F 14 °F (1926)
Degree Days  
Heating Degree Days 27 17  
Month to date heating degree days 378 310  
Since 1 July heating degree days 408 452  
Cooling Degree Days 0 0  
Month to date cooling degree days 0 8  
Year to date cooling degree days 949 914  
Moisture  
Dew Point 25 °F    
Average Humidity 66    
Maximum Humidity 92    
Minimum Humidity 39    
Precipitation  
Precipitation 0.00 in 0.06 in 0.45 in (1916)
Month to date precipitation 1.93 1.72  
Year to date precipitation 23.96 24.94  
Snow  
Snow 0.00 in 0.00 in - ()
Month to date snowfall T 0.4  
Since 1 July snowfall T 0.4  
Since 1 September snowfall T 0.4  
Snow Depth 0.00 in    
Sea Level Pressure  
Sea Level Pressure 30.41 in    
Wind  
Wind Speed 6 mph (WNW)    
Max Wind Speed 14 mph    
Max Gust Speed 20 mph    
Visibility 10 miles    
Events      
T = Trace of Precipitation, MM = Missing Value Source: NWS Daily Summary

Daily Weather History Graph

Daily Weather History Graph

Search for Another Location

Airport or City:

Astronomy

Oct. 24, 2019 Rise Set
Actual Time 7:52 AM CDT 6:34 PM CDT
Civil Twilight 7:23 AM CDT 7:03 PM CDT
Nautical Twilight 6:51 AM CDT 7:35 PM CDT
Astronomical Twilight 6:18 AM CDT 8:08 PM CDT
Moon 3:17 AM CDT (10/24) 5:08 PM CDT (10/24)
Length of Visible Light 11h 39m
Length of Day
10h 42m
Waning Crescent, 16% of the Moon is Illuminated
Oct 24
Waning Crescent
Oct 27
New
Nov 4
First Quarter
Nov 12
Full
Nov 19
Last Quarter

Hourly Weather History & Observations

Time (CDT) Temp. Windchill Dew Point Humidity Pressure Visibility Wind Dir Wind Speed Gust Speed Precip Events Conditions
12:56 AM 33.1 °F 24.9 °F 27.0 °F 78% 30.32 in 10.0 mi NW 10.4 mph - N/A   Clear
1:56 AM 32.0 °F 23.6 °F 26.1 °F 79% 30.35 in 10.0 mi NW 10.4 mph - N/A   Clear
2:56 AM 30.0 °F 24.1 °F 25.0 °F 82% 30.37 in 10.0 mi West 5.8 mph - N/A   Clear
3:56 AM 28.9 °F 21.9 °F 24.1 °F 82% 30.38 in 10.0 mi West 6.9 mph - N/A   Clear
4:56 AM 27.0 °F 21.6 °F 23.0 °F 85% 30.37 in 10.0 mi West 4.6 mph - N/A   Clear
5:56 AM 28.0 °F 20.0 °F 24.1 °F 85% 30.40 in 10.0 mi West 8.1 mph - N/A   Clear
6:56 AM 27.0 °F 19.5 °F 23.0 °F 85% 30.41 in 10.0 mi WNW 6.9 mph - N/A   Clear
7:56 AM 27.0 °F 20.5 °F 24.1 °F 89% 30.43 in 10.0 mi NW 5.8 mph - N/A   Clear
8:56 AM 30.0 °F 25.2 °F 27.0 °F 88% 30.47 in 10.0 mi West 4.6 mph - N/A   Clear
9:56 AM 34.0 °F 29.8 °F 28.9 °F 82% 30.48 in 10.0 mi WNW 4.6 mph - N/A   Clear
10:56 AM 39.0 °F 34.0 °F 30.0 °F 70% 30.50 in 10.0 mi WNW 6.9 mph - N/A   Clear
11:56 AM 43.0 °F 36.8 °F 30.0 °F 60% 30.48 in 10.0 mi NW 11.5 mph - N/A   Clear
12:56 PM 46.0 °F 41.0 °F 27.0 °F 47% 30.45 in 10.0 mi NNW 10.4 mph - N/A   Clear
1:56 PM 46.9 °F - 26.1 °F 44% 30.43 in 10.0 mi North 3.5 mph - N/A   Partly Cloudy
2:56 PM 48.0 °F - 24.1 °F 39% 30.40 in 10.0 mi North - - N/A   Clear
3:56 PM 48.9 °F - 24.1 °F 38% 30.36 in 10.0 mi NW 9.2 mph 19.6 mph N/A   Clear
4:56 PM 48.0 °F - 24.1 °F 39% 30.37 in 10.0 mi NNW 6.9 mph - N/A   Clear
5:56 PM 46.9 °F - 24.1 °F 41% 30.39 in 10.0 mi Calm Calm - N/A   Clear
6:56 PM 37.9 °F 34.4 °F 25.0 °F 60% 30.40 in 10.0 mi SE 4.6 mph - N/A   Clear
7:56 PM 36.0 °F 31.1 °F 24.1 °F 62% 30.41 in 10.0 mi SE 5.8 mph - N/A   Clear
8:56 PM 36.0 °F 31.1 °F 25.0 °F 64% 30.42 in 10.0 mi South 5.8 mph - N/A   Partly Cloudy
9:56 PM 30.0 °F - 21.9 °F 72% 30.42 in 10.0 mi Calm Calm - N/A   Clear
10:56 PM 32.0 °F - 23.0 °F 69% 30.42 in 10.0 mi Calm Calm - N/A   Clear
11:56 PM 26.1 °F 21.9 °F 19.9 °F 78% 30.40 in 10.0 mi SE 3.5 mph - N/A   Clear